{"data":{"norad_id":66723,"intl_designator":"2025-276BK","name":"FLOCK 4H-20","alt_names":[],"object_type":"PAYLOAD","status":"ACTIVE","operator":null,"country":"US","launch_date":"2025-11-28","launch_site_code":"AFWTR","launch_vehicle":null,"mission":null,"orbit_class":"UNKNOWN","rcs_meters":null,"size_class":null,"mass_kg":null,"dimensions":null,"purposes":["earth_obs"],"wikipedia_slug":null,"has_3d_model":false,"image_url":null,"decayed_at":null,"tle_current":{"epoch":"2026-09-19T03:51:02.425536Z","epoch_age_seconds":137747,"freshness":"FRESH","line1":"1 66723U 25276BK  26262.16044474  .00005110  00000+0  22568-3 0  9996","line2":"2 66723  97.4134 334.7511 0002235  12.8324 347.2968 15.22176090 43986","mean_motion":15.2217609,"eccentricity":0.0002235,"inclination_deg":97.4134,"raan_deg":334.7511,"arg_perigee_deg":12.8324,"mean_anomaly_deg":347.2968,"bstar":0.00022568,"rev_number":4398,"period_min":94.601407121038,"perigee_km":497.74109663905,"apogee_km":500.81530123297,"semimajor_km":6877.415198936,"source":"CELESTRAK","updated_at":"2026-09-20T09:00:34.751287Z"}}}